GW2192 Weather Reports


time (UTC)temp
C
wind
direction
speed
KPH
gust
KPH
rain 1hr
cm
rain 24hr
cm
rain mn
cm
humidity
%
barometer
mb
20260505184018 15 160 1.6 8.0 0.00 0.00 0.00 53 1012.7
20260505183518 15 0 0.0 9.7 0.00 0.00 0.00 50 1012.7
20260505183036 15 0 3.2 9.7 0.00 0.00 0.00 48 1012.7
20260505182517 15 0 3.2 9.7 0.00 0.00 0.00 49 1012.6
20260505182017 15 171 0.0 11.3 0.00 0.00 0.00 46 1012.6
20260505181540 15 215 0.0 11.3 0.00 0.00 0.00 48 1012.7
20260505181017 15 0 1.6 8.0 0.00 0.00 0.00 50 1012.5
20260505180518 15 223 0.0 6.4 0.00 0.00 0.00 48 1012.5
20260505180039 15 229 0.0 4.8 0.00 0.00 0.00 47 1012.6
20260505175517 15 263 0.0 4.8 0.00 0.00 0.00 47 1012.5
20260505175019 16 265 0.0 11.3 0.00 0.00 0.00 44 1012.7
20260505174541 16 26 0.0 11.3 0.00 0.00 0.00 44 1012.5
20260505174017 16 253 1.6 11.3 0.00 0.00 0.00 46 1012.4
20260505173517 16 0 0.0 8.0 0.00 0.00 0.00 45 1012.4
20260505173035 16 337 1.6 9.7 0.00 0.00 0.00 48 1012.4
20260505172517 16 0 0.0 9.7 0.00 0.00 0.00 45 1012.3
20260505172017 16 0 1.6 9.7 0.00 0.00 0.00 46 1012.4
20260505171543 15 0 0.0 6.4 0.00 0.00 0.00 48 1012.4
20260505171017 15 0 0.0 6.4 0.00 0.00 0.00 49 1012.6
20260505170518 15 336 1.6 6.4 0.00 0.00 0.00 49 1012.7
20260505170036 14 136 0.0 6.4 0.00 0.00 0.00 49 1012.7
20260505165517 15 275 1.6 9.7 0.00 0.00 0.00 46 1012.9
20260505165020 15 15 1.6 9.7 0.00 0.00 0.00 47 1012.8
20260505164536 14 346 4.8 9.7 0.00 0.00 0.00 46 1012.7
20260505164017 14 13 1.6 9.7 0.00 0.00 0.00 49 1012.5
20260505163517 13 244 3.2 11.3 0.00 0.00 0.00 49 1012.6
20260505163037 13 0 1.6 11.3 0.00 0.00 0.00 51 1012.8
20260505162516 13 107 3.2 11.3 0.00 0.00 0.00 51 1012.8
20260505162017 13 241 1.6 11.3 0.00 0.00 0.00 53 1012.7
20260505161534 12 235 1.6 11.3 0.00 0.00 0.00 55 1012.8
20260505161018 12 74 1.6 9.7 0.00 0.00 0.00 57 1012.9
20260505160518 12 360 3.2 16.1 0.00 0.00 0.00 58 1013.0
20260505153038 12 275 4.8 20.9 0.00 0.00 0.00 56 1013.3
20260505152516 12 236 3.2 17.7 0.00 0.00 0.00 57 1013.4
20260505152017 12 0 4.8 17.7 0.00 0.00 0.00 59 1013.5
20260505151554 12 204 4.8 12.9 0.00 0.00 0.00 61 1013.6
20260505151017 12 213 3.2 9.7 0.00 0.00 0.00 62 1013.6
20260505150520 12 360 3.2 12.9 0.00 0.00 0.00 62 1013.4
20260505140518 13 0 1.6 12.9 0.00 0.00 0.00 55 1013.4
20260505125021 14 0 0.0 9.7 0.00 0.00 0.00 44 1012.4
20260505124544 14 0 1.6 9.7 0.00 0.00 0.00 45 1012.3
20260505124020 14 0 1.6 6.4 0.00 0.00 0.00 40 1012.4
20260505123517 14 265 1.6 6.4 0.00 0.00 0.00 40 1012.5
20260505123041 14 223 1.6 4.8 0.00 0.00 0.00 40 1012.4
20260505122517 15 250 1.6 9.7 0.00 0.00 0.00 39 1012.5
20260505122019 15 253 1.6 9.7 0.00 0.00 0.00 39 1012.4
20260505121535 15 269 3.2 9.7 0.00 0.00 0.00 39 1012.4
20260505121016 15 275 3.2 6.4 0.00 0.00 0.00 38 1012.4
20260505120522 15 253 1.6 8.0 0.00 0.00 0.00 38 1012.3
20260505120042 15 206 3.2 9.7 0.00 0.00 0.00 38 1012.4
20260505115515 15 262 3.2 9.7 0.00 0.00 0.00 39 1012.2
20260505115019 15 232 1.6 11.3 0.00 0.00 0.00 40 1012.2
20260505114540 15 284 3.2 11.3 0.00 0.00 0.00 39 1012.3
20260505114022 15 236 3.2 11.3 0.00 0.00 0.00 39 1012.1
20260505113520 15 228 3.2 11.3 0.00 0.00 0.00 39 1011.9
20260505113035 15 259 3.2 11.3 0.00 0.00 0.00 39 1011.9
20260505112521 15 243 1.6 14.5 0.00 0.00 0.00 38 1011.8
20260505112019 15 0 3.2 14.5 0.00 0.00 0.00 38 1011.8
20260505111541 15 207 4.8 11.3 0.00 0.00 0.00 37 1011.9
20260505111019 15 296 3.2 11.3 0.00 0.00 0.00 37 1011.7
20260505110519 15 271 3.2 9.7 0.00 0.00 0.00 37 1011.9
20260505102019 15 308 1.6 6.4 0.00 0.00 0.00 34 1012.2
20260505101541 15 202 1.6 6.4 0.00 0.00 0.00 34 1012.2
20260505101015 15 221 1.6 6.4 0.00 0.00 0.00 34 1012.2
20260505100519 15 236 0.0 4.8 0.00 0.00 0.00 34 1012.2
20260505100036 15 0 0.0 1.6 0.00 0.00 0.00 35 1012.2
20260505095517 15 0 0.0 1.6 0.00 0.00 0.00 35 1012.1
20260505095016 15 0 0.0 3.2 0.00 0.00 0.00 34 1012.1
20260505094536 15 0 0.0 3.2 0.00 0.00 0.00 35 1012.1
20260505094017 15 238 0.0 3.2 0.00 0.00 0.00 35 1012.1
20260505093516 15 0 0.0 3.2 0.00 0.00 0.00 35 1011.9
20260505093040 15 237 0.0 3.2 0.00 0.00 0.00 35 1011.9
20260505092516 15 237 0.0 3.2 0.00 0.00 0.00 34 1011.8
20260505092016 15 0 0.0 3.2 0.00 0.00 0.00 34 1012.0
20260505091536 15 0 0.0 3.2 0.00 0.00 0.00 34 1012.2
20260505091015 15 0 0.0 4.8 0.00 0.00 0.00 34 1012.2
20260505090516 15 0 0.0 4.8 0.00 0.00 0.00 34 1012.2
20260505090048 16 0 0.0 6.4 0.00 0.00 0.00 33 1012.3
20260505085515 16 237 1.6 6.4 0.00 0.00 0.00 33 1012.4
20260505085017 16 0 1.6 4.8 0.00 0.00 0.00 33 1012.3
20260505084540 16 232 0.0 3.2 0.00 0.00 0.00 33 1012.4
20260505084018 16 0 0.0 4.8 0.00 0.00 0.00 32 1012.4
20260505083517 16 229 1.6 4.8 0.00 0.00 0.00 31 1012.5
20260505083038 16 229 0.0 4.8 0.00 0.00 0.00 32 1012.6
20260505082518 16 230 1.6 11.3 0.00 0.00 0.00 31 1012.7
20260505082017 16 242 1.6 12.9 0.00 0.00 0.00 31 1012.8
20260505081542 16 0 3.2 12.9 0.00 0.00 0.00 31 1012.7
20260505081018 16 257 4.8 19.3 0.00 0.00 0.00 31 1012.7
20260505080516 16 254 4.8 19.3 0.00 0.00 0.00 30 1012.7
20260505080034 16 286 6.4 17.7 0.00 0.00 0.00 31 1012.5
20260505075517 16 217 4.8 12.9 0.00 0.00 0.00 31 1012.7
20260505075015 16 239 4.8 12.9 0.00 0.00 0.00 31 1012.9
20260505074534 17 238 4.8 16.1 0.00 0.00 0.00 31 1012.9
20260505074015 17 244 4.8 16.1 0.00 0.00 0.00 31 1012.8
20260505073518 17 264 4.8 16.1 0.00 0.00 0.00 31 1012.7
20260505073037 17 238 6.4 14.5 0.00 0.00 0.00 30 1012.6
20260505072516 17 269 4.8 14.5 0.00 0.00 0.00 30 1012.7
20260505072015 17 238 6.4 16.1 0.00 0.00 0.00 30 1012.5
20260505071536 17 238 6.4 17.7 0.00 0.00 0.00 30 1012.6
20260505071018 17 252 6.4 17.7 0.00 0.00 0.00 30 1012.6
20260505070517 17 286 3.2 17.7 0.00 0.00 0.00 30 1012.6
20260505070042 17 273 3.2 17.7 0.00 0.00 0.00 29 1012.7
20260505065518 17 0 3.2 17.7 0.00 0.00 0.00 29 1012.4
20260505065017 17 194 1.6 14.5 0.00 0.00 0.00 28 1012.4
20260505064534 17 221 3.2 14.5 0.00 0.00 0.00 28 1012.2
20260505064015 17 202 4.8 14.5 0.00 0.00 0.00 28 1012.4
20260505063519 17 242 3.2 16.1 0.00 0.00 0.00 28 1012.3
20260505063033 18 242 4.8 16.1 0.00 0.00 0.00 27 1012.3
20260505062519 18 301 4.8 16.1 0.00 0.00 0.00 27 1012.3
20260505062016 18 203 1.6 12.9 0.00 0.00 0.00 27 1012.3
20260505061540 18 247 4.8 12.9 0.00 0.00 0.00 26 1012.3
20260505061020 18 284 4.8 20.9 0.00 0.00 0.00 26 1012.3
20260505060517 18 212 6.4 20.9 0.00 0.00 0.00 26 1012.3
20260505060036 18 306 8.0 20.9 0.00 0.00 0.00 25 1012.2
20260505055517 18 296 6.4 20.9 0.00 0.00 0.00 25 1012.0
20260505055020 18 236 8.0 19.3 0.00 0.00 0.00 25 1011.9
20260505054540 18 233 8.0 19.3 0.00 0.00 0.00 25 1012.1
20260505054019 18 232 11.3 19.3 0.00 0.00 0.00 24 1012.1
20260505053519 18 227 8.0 19.3 0.00 0.00 0.00 25 1011.9
20260505053043 19 223 6.4 19.3 0.00 0.00 0.00 24 1011.8
20260505052517 19 246 6.4 17.7 0.00 0.00 0.00 24 1011.9
20260505052017 19 269 6.4 17.7 0.00 0.00 0.00 24 1011.9
20260505051535 19 257 1.6 14.5 0.00 0.00 0.00 24 1011.9
20260505051014 19 218 3.2 14.5 0.00 0.00 0.00 24 1011.8
20260505050519 19 232 4.8 14.5 0.00 0.00 0.00 23 1011.8
20260505041534 20 250 1.6 8.0 0.00 0.00 0.00 23 1011.7
20260505041017 20 219 1.6 6.4 0.00 0.00 0.00 23 1011.7
20260505040514 20 283 1.6 8.0 0.00 0.00 0.00 24 1011.6
20260505040035 20 242 1.6 8.0 0.00 0.00 0.00 23 1011.7
20260505035517 20 0 1.6 12.9 0.00 0.00 0.00 23 1011.6
20260505035030 20 245 1.6 12.9 0.00 0.00 0.00 24 1011.6
20260505034531 20 254 3.2 12.9 0.00 0.00 0.00 23 1011.6
20260505034018 20 0 4.8 12.9 0.00 0.00 0.00 23 1011.4
20260505033515 20 0 3.2 11.3 0.00 0.00 0.00 23 1011.4
20260505033100 20 283 3.2 11.3 0.00 0.00 0.00 23 1011.3
20260505032518 20 254 3.2 14.5 0.00 0.00 0.00 23 1011.3
20260505032014 20 275 4.8 14.5 0.00 0.00 0.00 23 1011.1
20260505031538 20 259 4.8 17.7 0.00 0.00 0.00 22 1011.1
20260505031018 21 250 6.4 17.7 0.00 0.00 0.00 22 1011.0
20260505030519 21 277 8.0 17.7 0.00 0.00 0.00 22 1010.8
20260505030038 21 259 6.4 17.7 0.00 0.00 0.00 22 1010.7
20260505025518 21 233 4.8 14.5 0.00 0.00 0.00 21 1010.7
20260505025017 21 243 8.0 17.7 0.00 0.00 0.00 21 1010.7
20260505024536 21 278 8.0 20.9 0.00 0.00 0.00 21 1010.7
20260505024018 21 235 9.7 20.9 0.00 0.00 0.00 21 1010.6
20260505023517 21 315 8.0 17.7 0.00 0.00 0.00 20 1010.5
20260505023042 21 298 4.8 16.1 0.00 0.00 0.00 21 1010.6
20260505022522 21 265 8.0 17.7 0.00 0.00 0.00 20 1010.6
20260505022017 21 262 4.8 17.7 0.00 0.00 0.00 20 1010.6
20260505021536 21 277 8.0 17.7 0.00 0.00 0.00 19 1010.6
20260505021022 22 252 6.4 19.3 0.00 0.00 0.00 20 1010.6
20260505020518 22 259 6.4 19.3 0.00 0.00 0.00 19 1010.4
20260505020035 22 259 6.4 19.3 0.00 0.00 0.00 19 1010.3
20260505015515 22 249 6.4 19.3 0.00 0.00 0.00 19 1010.2
20260505015017 22 252 6.4 20.9 0.00 0.00 0.00 19 1010.1
20260505014536 22 282 6.4 20.9 0.00 0.00 0.00 19 1010.2
20260505014016 22 250 6.4 17.7 0.00 0.00 0.00 19 1010.0
20260505013517 22 282 6.4 17.7 0.00 0.00 0.00 19 1010.0
20260505013034 22 255 4.8 14.5 0.00 0.00 0.00 19 1009.9
20260505012514 22 241 1.6 14.5 0.00 0.00 0.00 19 1009.7
20260505012016 22 279 3.2 16.1 0.00 0.00 0.00 20 1009.7
20260505011533 22 248 3.2 16.1 0.00 0.00 0.00 19 1009.7
20260505011018 22 224 6.4 16.1 0.00 0.00 0.00 19 1009.7
20260505010517 23 237 4.8 20.9 0.00 0.00 0.00 19 1009.7
20260505010037 23 155 6.4 20.9 0.00 0.00 0.00 19 1009.7
20260505005517 23 254 9.7 19.3 0.00 0.00 0.00 18 1009.8
20260505005018 23 256 6.4 16.1 0.00 0.00 0.00 18 1009.7
20260505004544 23 268 4.8 17.7 0.00 0.00 0.00 18 1009.7
20260505004016 23 255 6.4 17.7 0.00 0.00 0.00 17 1009.6
20260505003518 23 259 3.2 16.1 0.00 0.00 0.00 17 1009.8
20260505003037 23 245 6.4 19.3 0.00 0.00 0.00 17 1009.8
20260505002518 23 250 4.8 19.3 0.00 0.00 0.00 17 1009.9
20260505002015 23 252 8.0 22.5 0.00 0.00 0.00 16 1009.9
20260505001534 23 250 9.7 22.5 0.00 0.00 0.00 16 1009.8
20260505001017 23 220 9.7 20.9 0.00 0.00 0.00 16 1009.9
20260505000517 23 272 6.4 20.9 0.00 0.00 0.00 16 1010.0
20260505000035 23 282 8.0 20.9 0.00 0.00 0.00 16 1009.9
20260504235517 23 213 4.8 17.7 0.00 0.00 0.00 16 1009.9
20260504235018 23 229 8.0 17.7 0.00 0.00 0.00 16 1009.9
20260504234550 23 241 8.0 17.7 0.00 0.00 0.00 15 1010.0
20260504234017 23 241 6.4 20.9 0.00 0.00 0.00 15 1010.0
20260504233517 23 218 6.4 20.9 0.00 0.00 0.00 15 1010.2
20260504233037 23 234 11.3 20.9 0.00 0.00 0.00 14 1010.2
20260504232517 23 228 4.8 22.5 0.00 0.00 0.00 14 1010.2
20260504232017 23 291 9.7 22.5 0.00 0.00 0.00 14 1010.2
20260504231548 23 205 9.7 20.9 0.00 0.00 0.00 14 1010.2
20260504231017 23 243 8.0 20.9 0.00 0.00 0.00 13 1010.3
20260504230518 23 229 11.3 22.5 0.00 0.00 0.00 13 1010.3
20260504230035 23 291 9.7 22.5 0.00 0.00 0.00 13 1010.2
20260504225523 24 320 11.3 22.5 0.00 0.00 0.00 12 1010.2
20260504225015 24 213 6.4 20.9 0.00 0.00 0.00 12 1010.2
20260504224534 24 267 12.9 25.7 0.00 0.00 0.00 12 1010.3
20260504224018 24 223 9.7 25.7 0.00 0.00 0.00 12 1010.3
20260504223514 24 206 11.3 25.7 0.00 0.00 0.00 13 1010.2
20260504223034 24 252 9.7 27.4 0.00 0.00 0.00 13 1010.3
20260504222515 24 281 11.3 27.4 0.00 0.00 0.00 12 1010.4
20260504222017 24 193 12.9 27.4 0.00 0.00 0.00 13 1010.6
20260504221535 24 302 6.4 19.3 0.00 0.00 0.00 12 1010.6
20260504221014 24 248 9.7 29.0 0.00 0.00 0.00 12 1010.6
20260504220514 24 257 9.7 29.0 0.00 0.00 0.00 11 1010.7
20260504220032 25 257 9.7 24.1 0.00 0.00 0.00 11 1010.9
20260504215518 25 241 9.7 22.5 0.00 0.00 0.00 11 1010.8
20260504215020 25 246 8.0 19.3 0.00 0.00 0.00 11 1010.9
20260504214538 25 227 6.4 20.9 0.00 0.00 0.00 12 1011.0
20260504214017 25 204 8.0 29.0 0.00 0.00 0.00 12 1011.0
20260504213521 25 240 9.7 29.0 0.00 0.00 0.00 11 1011.0
20260504213034 25 226 4.8 22.5 0.00 0.00 0.00 13 1011.0
20260504212519 25 156 9.7 24.1 0.00 0.00 0.00 12 1011.0
20260504212014 25 243 8.0 24.1 0.00 0.00 0.00 13 1011.2
20260504211531 25 253 8.0 25.7 0.00 0.00 0.00 12 1011.1
20260504211017 25 246 11.3 29.0 0.00 0.00 0.00 12 1011.3
20260504210518 25 209 11.3 29.0 0.00 0.00 0.00 12 1011.3
20260504210034 25 202 8.0 22.5 0.00 0.00 0.00 13 1011.6
20260504205521 25 223 6.4 20.9 0.00 0.00 0.00 12 1011.6
20260504205015 25 168 4.8 17.7 0.00 0.00 0.00 16 1011.8
20260504204613 25 306 4.8 17.7 0.00 0.00 0.00 16 1012.1
20260504204018 25 258 3.2 17.7 0.00 0.00 0.00 15 1011.9
20260504203515 25 149 4.8 17.7 0.00 0.00 0.00 15 1012.2
20260504203036 25 281 6.4 17.7 0.00 0.00 0.00 16 1012.4
20260504202518 25 240 3.2 17.7 0.00 0.00 0.00 18 1012.6
20260504202019 24 0 6.4 22.5 0.00 0.00 0.00 17 1012.7
20260504201536 24 271 4.8 22.5 0.00 0.00 0.00 18 1012.9
20260504201017 24 302 3.2 17.7 0.00 0.00 0.00 18 1012.8
20260504200520 23 286 4.8 17.7 0.00 0.00 0.00 19 1012.9
20260504200039 23 303 8.0 17.7 0.00 0.00 0.00 18 1013.1
20260504195514 23 242 6.4 17.7 0.00 0.00 0.00 20 1013.1
20260504195014 23 120 6.4 22.5 0.00 0.00 0.00 19 1013.1
20260504194544 23 258 11.3 22.5 0.00 0.00 0.00 18 1013.2
20260504194016 23 44 4.8 20.9 0.00 0.00 0.00 20 1013.1
20260504193515 23 345 6.4 20.9 0.00 0.00 0.00 20 1013.3
20260504193032 23 245 6.4 17.7 0.00 0.00 0.00 19 1013.4
20260504192516 23 252 6.4 17.7 0.00 0.00 0.00 19 1013.6
20260504192015 23 169 3.2 12.9 0.00 0.00 0.00 20 1013.5
20260504191534 23 114 1.6 12.9 0.00 0.00 0.00 20 1013.6
20260504191015 22 239 4.8 16.1 0.00 0.00 0.00 21 1013.7
20260504190515 22 0 4.8 16.1 0.00 0.00 0.00 24 1013.7
20260504190037 22 261 4.8 17.7 0.00 0.00 0.00 21 1013.9
20260504185521 22 267 8.0 17.7 0.00 0.00 0.00 23 1014.0
20260504185014 22 217 6.4 20.9 0.00 0.00 0.00 20 1014.0
20260504184534 22 217 6.4 20.9 0.00 0.00 0.00 20 1014.4